OBJECT B, 62484

Orbit data source: Space-Track

You're viewing an Uncataloged Satellite

Recently launched and/or uncataloged satellites may have evolving metadata. Metadata may include but not limited to: Owner, Maufacturer, Bus, Motor, and Mission.

OBJECT B, 62484 is a satellite owned by SpaceX (US) in HEO that was launched on Sat, 04 Jan 2025 UTC launched from the Air Force Eastern Test Range (AFETR). Unknown objects in Earth's orbit typically refer to objects detected orbiting the Earth but have not yet been identified or cataloged. These objects could be anything from previously untracked satellites, spent rocket stages, debris from satellite collisions, or even natural meteoroids temporarily captured by Earth's gravity.

Loading next visibility...
OBJECT B details
Identifier
62484, 2025-001B
Orbit
HEO
Last TLE update2 days ago
Origin
Flag of USSpaceX (US)
ManufacturerSpaceX
MissionSpacecraft
Bus & MotorF9ST2, Unknown motor
Mass~4,000 kg wet, ~4,000 kg dry
Launch date (UTC)
2025-01-04 (3 weeks ago)
Launch vehicleUnknown
Launch site
Air Force Eastern Test Range (AFETR)
Object typeUnknown
Shape & HBRUnknown
Radar Cross SectionLarge (>1 m²)

Expand to show TLE details & history

TLE from 2 days ago
0 OBJECT B
1 62484U 25001B   25024.15663332  .00000055  00000-0  20399-2 0  9999
2 62484  26.6957 317.3320 7974052 184.2121 157.9418  1.41661072   286
Epoch: 2025-01-24T03:45Z
Definitive object data (Epoch: 2025-01-24T03:45:33.118Z)
Latitude0.00022°
Longitude137.23387°
Altitude53,238.419 km
Speed1.212 km/s
True Right ascension21h 09m 22s
True Declination0° 00' 01"
Sunlit
Object was in daylight at TLE epoch
Visualization TLE readout
Latitude14.94618°
Longitude168.82764°
Altitude32,745.309 km
Speed2.911 km/s
Apparent Right ascension23h 28m 26s
Apparent Declination10° 13' 29"
Sunlit
Object is in daylight
Visualization observer readout
Local Sidereal Time21:47:23
Azimuth136.001° SSE
Elevation52.799°
Doppler factor1
Orbital elements
Apogee altitude53,822.609 km
Perigee altitude407.399 km
Semi-major axis33,493.141 km
Eccentricity0.7974052
Inclination26.6957°
RAAN317.332°
Arg. of periapsis184.2121°
True anomaly175.85157°
Mean anomaly157.9418°
Eccentric anomaly167.68579°
Mean motion0.35409 °/min
BSTAR0.0020399
Orbital period1016.7 mins
Loading maneuver chart data...
Loading historical data...
Loading historical data...
Loading historical data...
Loading historical data...
Loading historical data...
Loading historical data...
Loading historical data...
Other satellites on launch #1 in the year 2025 (2025-01-04 UTC)

OBJECT B Visibility forecast

Observer location: undefined°, undefined

Span
Click to sort rows by Start time (UTC) header in descending order
Start Az.
Max El. time (UTC)
Max El. Az.
Max El.
End time (UTC)
End Az.
137 mins2025-01-25 20:26:17.003Z136.022° SSE2025-01-25 21:33:17.003Z134.668° SE39.977°2025-01-25 22:43:17.003Z89.572° E
200 mins2025-01-26 17:06:17.003Z191.482° SSW2025-01-26 20:09:17.003Z206.597° SW28.884°2025-01-26 20:26:17.003Z210.248° SW
|